Location: Bu�n Treun
(12.1333°N, 108.3167°E)
Time: 23:44:04
(UTC+00:00)

Cosmos 1814 Rocket - Pass Details

Date: 13 July 2020
Orbit: 745 x 786 km, 74.1° (Epoch: 03 August)

Event Time Altitude Azimuth Distance (km) Brightness Sun altitude
Rises 21:22:49 0° 347° (NNW) 3,186 7.4 -15.6°
Reaches altitude 10° 21:25:10 10° 348° (NNW) 2,266 6.6 -15.1°
Maximum altitude 21:30:18 87° 75° (ENE) 760 4.0 -14.0°
Drops below altitude 10° 21:35:30 10° 167° (SSE) 2,290 6.3 -12.9°
Sets 21:37:53 0° 167° (SSE) 3,222 7.1 -12.3°
